Regional Weather Roundup
Issued by NWS

Home | Current Version | Previous Version | Graphics & Text | Print | Product List | Glossary On
Versions: 1 2 3 4 5 6 7 8 9 10 11 12 13 14 15 16 17 18 19 20 21 22 23 24 25 26 27 28 29 30 31 32 33 34 35 36 37 38 39 40 41 42 43 44 45 46 47 48 49 50
000
ASUS44 KMEG 181910
RWRTN
TENNESSEE HOURLY STATE WEATHER ROUNDUP
NATIONAL WEATHER SERVICE MEMPHIS TN
200 PM CDT FRI AUG 18 2017

TNZ002-004-019-021-049-052-054-088>092-182000-
WEST TENNESSEE

CITY           SKY/WX    TMP DP  RH WIND       PRES   REMARKS
MEMPHIS INTL   MOSUNNY   89  68  49 NW5       30.00F HX  93
NWS MEMPHIS      N/A     88 N/A N/A MISG        N/A
JACKSON        SUNNY     87  66  49 N7        30.00F
DYERSBURG      SUNNY     86  67  52 NW7       30.01F
SOMERVILLE     SUNNY     86  66  51 VRB7G14   30.00F
COVINGTON      SUNNY     86  64  48 NW8       30.00F
UNION CITY     SUNNY     86  68  54 W6G14     29.98F
BOLIVAR        SUNNY     86  66  51 W7        30.00F
PARIS          SUNNY     84  66  54 VRB5G13   29.99F
HUNTINGDON     SUNNY     86  66  51 W8        29.99S
LEXINGTON      SUNNY     86  66  51 W7G13     30.00S
SELMER         SUNNY     86  66  51 NW8       30.00F
SAVANNAH       SUNNY     86  68  54 NW6       29.99F
$$

TNZ008-025-027-028-033-062-065-066-182000-
NORTH MIDDLE TENNESSEE

CITY           SKY/WX    TMP DP  RH WIND       PRES   REMARKS
NASHVILLE      MOSUNNY   88  63  43 W10       29.99F
PORTLAND       MOSUNNY   82  64  54 VRB7G14   29.99S
CLARKSVILLE    MOSUNNY   85  63  47 NW9G18    29.99F
SMYRNA         MOSUNNY   88  67  49 W9        29.99F HX  91
COOKEVILLE     MOSUNNY   84  66  54 VRB6      29.99F
GALLATIN       MOSUNNY   88  66  48 VRB5      30.01S HX  90
CROSSVILLE     MOSUNNY   81  63  54 W9        30.04S
$$

TNZ061-075-076-078-094-096-097-182000-
SOUTH MIDDLE TENNESSEE

CITY           SKY/WX    TMP DP  RH WIND       PRES   REMARKS
FAYETTEVILLE   MOSUNNY   86  68  54 W8        30.00F
TULLAHOMA      MOSUNNY   86  64  48 W9        30.02F
WINCHESTER     MOSUNNY   84  66  54 NW6       30.01F
MCMINNVILLE    MOSUNNY   84  70  61 W8        30.01S
COLUMBIA       MOSUNNY   84  66  54 VRB7      29.98S
SHELBYVILLE    MOSUNNY   86  66  51 W7G16     30.00S
$$

TNZ017-018-042-046-047-182000-
NORTHEAST TENNESSEE

CITY           SKY/WX    TMP DP  RH WIND       PRES   REMARKS
TRI CITIES     CLOUDY    80  72  76 SW12      29.98F
ELIZABETHTON   CLOUDY    79  73  83 SW6       29.99F
$$

TNZ012-013-036-069-073-074-182000-
CENTRAL EAST TENNESSEE

CITY           SKY/WX    TMP DP  RH WIND       PRES   REMARKS
KNOXVILLE      MOSUNNY   86  67  52 W12       29.96F
DOWNTOWN KNOXV PTSUNNY   86  70  58 W8G15     29.94F HX  90
GATLINBURG     MOSUNNY   88  70  55 SW9       29.95F HX  92
MORRISTOWN     MOSUNNY   84  72  65 W9        29.96F
JACKSBORO      MOSUNNY   86  66  51 VRB6G16   30.00F
$$

TNZ083-085-099-182000-
SOUTHEAST TENNESSEE

CITY           SKY/WX    TMP DP  RH WIND       PRES   REMARKS
CHATTANOOGA    PTSUNNY   90  65  43 W12       29.98F HX  92
DAYTON         PTCLDY    88  70  55 VRB5G18   29.96F HX  92
$$

SKY/WX REPORTED AS FAIR MEANS FEW OR NO CLOUDS BELOW
12 THOUSAND FEET.





USA.gov is the U.S. government's official web portal to all federal, state and local government web resources and services.